Regional Weather Roundup
Issued by NWS Newport/Morehead, NC

Current Version | Previous Version | Text Only | Print | Product List | Glossary On
Versions: 1 2 3 4 5 6 7 8 9 10 11 12 13 14 15 16 17 18 19 20 21 22 23 24 25 26 27 28 29 30 31 32 33 34 35 36 37 38 39 40 41 42 43 44 45 46 47 48 49 50
000 ASUS42 KMHX 280213 RWRMHX WEATHER ROUNDUP FOR EASTERN NORTH CAROLINA NATIONAL WEATHER SERVICE NEWPORT/MOREHEAD CITY NC 1000 PM EDT THU APR 27 2017 NOTE: "FAIR" INDICATES FEW OR NO CLOUDS BELOW 12,000 FEET WITH NO SIGNIFICANT WEATHER AND/OR OBSTRUCTIONS TO VISIBILITY NCZ015>017-031-032-045>047-102-103-280300- NORTH COAST CITY SKY/WX TMP DP RH WIND PRES REMARKS EDENTON CLOUDY 74 65 74 S10 29.93R ELIZABETH CITY PTCLDY 73 65 75 S12 29.92R KITTY HAWK CLEAR 71 65 82 S6 29.93R MANTEO CLEAR 71 66 85 SW13 29.95R $$ NCZ045>047-081-094-103-104-280300- CENTRAL COAST CITY SKY/WX TMP DP RH WIND PRES REMARKS FRISCO PTCLDY 73 67 81 SW12 29.97R HAZE $$ NCZ095-097-098-100-101-280300- SOUTHERN COAST CITY SKY/WX TMP DP RH WIND PRES REMARKS BEAUFORT CLEAR 72 71 97 SW9 29.98R CEDAR ISLAND NOT AVBL JACKSONVILLE CLOUDY 71 67 87 S6 29.96R PINEY ISLAND CLEAR N/A N/A N/A SW6 29.97R WILMINGTON MOCLDY 74 69 85 S6 29.97R $$ NCZ011>013-027>030-043-044-078>080-089-090>093-098-280300- COASTAL PLAIN CITY SKY/WX TMP DP RH WIND PRES REMARKS AHOSKIE N/A 69 63 81 S3 29.91R CLINTON CLOUDY 73 68 85 S5 29.93R ELIZABETHTOWN CLOUDY 73 68 84 S8 29.93R GOLDSBORO PTCLDY 74 67 80 S7 29.92R GREENVILLE CLOUDY 73 63 68 SW12G17 29.95R HAVELOCK NOT AVBL KENANSVILLE CLOUDY 73 66 78 S5 29.94R KINSTON MOCLDY 73 63 68 S9 29.95R NEW BERN PTCLDY 72 64 76 S8 29.97R RICHLANDS CLOUDY 72 66 81 S7 29.96R ROCKY MOUNT CLOUDY 73 65 75 S8 29.92R WASHINGTON MOCLDY 73 63 69 S7 29.95R WHITEVILLE CLOUDY 73 70 88 S7 29.93S $$ AMZ130-135-150-152-154-156-158-170-250-252-270-ANZ085-086-088-633-658-670-280300- MARINE OBSERVATIONS STATION/POSITION TIME TEMP WIND PRES WAVE SWELL AIR SEA DIR/SP/G HT/PER HT/PER (UTC) (F) (DEG/KT/KT) (MB) (FT/S) (FT/S) CHESAPEAKE LIGHT NOT AVBL 64 E VA BEACH 0050 62 57 200/ 12/ 14 1013.6 4/ 8 3/ 8 DUCK 0148 72 58 190/ 13/ 16 1012.7 2 E DUCK 0200 62 N/A 3/11 2/11 OREGON INLET 0148 200/ 14/ 17 1013.9 13E OREGON INLT 0148 64 N/A 5/ 8 5/ 8 HATTERAS CG 0148 73 72 200/ 6/ 10 1014.6 DIAMOND BUOY 0050 77 77 210/ 17/ 21 1014.0 5/ 9 3/ 9 CAPE LOOKOUT 0100 73 180/ 10/ 11 1013.7 BEAUFORT LAB 0148 72 69 190/ 8/ 8 1014.0 30 SE NEW RVR IN 0108 74 200/ 12/ 17 1014.0 30 SE NEW RVR IN 0143 72 N/A 5/ 6 2/11 27 SE WRIGHTSVLE 0108 74 72 180/ 14/ 17 1012.9 5 SE WRIGHTSVLE 0108 73 71 190/ 8/ 14 1013.5 225 S CAPE HAT 0050 75 75 170/ 12/ 16 1018.1 4/ 6 3/ 8 41 SE CHARLESTON 0120 75 74 170/ 14/ 16 1013.1 $$

USA.gov is the U.S. government's official web portal to all federal, state and local government web resources and services.